Wind_Speed
5 5 6 8 7 7 7 7 8 6 7 6 4 4 4 3 4 4 4 5 2 5 1 4 6 4 1 4 7 13 8 2 4 6 4 6 9 9 10 9 9 9 8 11 17 19 19 18 18 18 17 17 15 14 13 13 12 10 10 8 6 4 3 3 3 4 5 6 7 7 5 4 4 4 6 8 8 8 9 9 9 10 10 10 11 11
5 8 8 6 6 7 7 8 8 7 5 4 4 3 3 3 4 5 4 4 3 4 3 4 10 7 3 3 7 13 15 8 7 9 7 9 12 9 10 10 9 9 8 11 15 18 19 19 19 19 19 18 17 15 13 12 12 10 9 8 5 4 3 3 3 4 4 5 5 5 5 5 5 5 6 6 6 7 8 9 9 10 11 11 11 11
5 7 6 6 6 7 7 7 9 8 6 4 4 4 2 4 3 5 5 5 3 4 1 3 10 7 4 5 7 10 12 11 12 13 12 14 14 11 11 9 9 11 10 10 12 15 18 19 20 20 20 20 19 17 15 14 14 13 12 10 8 5 3 2 1 1 1 1 1 3 4 6 6 6 7 6 6 7 8 9 9 10 11 11 12 12
5 5 6 7 6 8 5 6 9 6 5 4 4 5 3 3 3 1 4 5 5 3 5 7 9 6 4 5 6 6 7 7 8 10 10 11 12 10 10 8 9 12 11 10 11 11 15 19 20 19 19 20 20 19 17 17 16 15 14 11 9 7 4 1 1 1 1 0 0 1 2 4 5 5 6 6 7 9 9 10 10 11 11 12 12 12
4 5 7 9 7 8 6 6 8 6 4 3 5 6 4 4 5 3 2 1 6 4 6 10 7 2 4 7 6 5 5 6 5 6 9 8 9 10 9 9 9 9 8 10 11 9 11 17 18 18 19 20 21 21 19 18 18 17 14 12 10 8 5 3 2 3 3 3 2 2 2 2 4 5 7 8 9 10 10 11 12 12 12 12 11 12
5 4 7 10 7 8 7 6 7 7 4 3 5 8 7 6 5 2 1 3 6 2 2 5 4 2 2 7 8 5 5 7 4 3 8 9 7 6 8 9 9 8 7 9 10 9 11 15 18 19 19 19 21 21 20 18 18 18 16 13 11 10 8 6 5 5 5 5 6 6 7 8 8 10 12 12 12 12 12 12 12 12 12 12 10 10
5 4 7 10 8 8 8 6 7 8 6 3 6 7 7 7 5 3 2 2 3 2 5 3 4 1 3 6 8 7 7 10 7 5 9 10 6 5 7 9 8 8 8 8 8 8 11 14 18 19 17 18 21 20 19 18 18 17 16 14 12 11 10 8 7 6 4 5 7 8 10 12 12 13 13 13 11 11 11 10 10 11 11 12 11 10
6 8 7 9 9 8 8 6 7 9 7 4 4 7 8 7 6 4 3 3 3 3 4 2 5 2 2 5 7 7 8 10 12 9 8 7 4 5 8 9 9 8 8 9 8 8 11 13 16 18 16 18 20 19 18 18 18 17 16 15 13 12 10 9 8 7 6 7 8 8 9 11 12 13 12 11 10 10 10 10 10 10 10 11 11 11
6 10 9 9 9 7 7 5 7 10 6 4 5 9 8 8 7 6 5 5 3 1 4 2 5 3 2 3 4 5 6 6 8 9 9 8 4 6 10 11 10 8 7 9 8 8 11 14 16 19 19 19 21 19 18 18 17 16 15 15 14 13 12 9 8 7 8 9 9 8 9 10 11 11 11 10 10 10 10 11 11 11 11 10 10 11
3 10 10 8 8 7 6 6 8 11 6 3 7 7 3 5 4 4 6 3 1 1 5 6 6 3 1 2 3 5 5 4 3 4 7 9 9 9 11 11 10 8 7 9 10 9 12 15 16 18 20 21 20 19 18 18 17 15 14 14 13 14 13 10 8 7 7 7 8 9 9 9 10 10 10 10 11 12 12 13 13 13 12 12 11 11
3 5 8 7 6 6 7 5 7 11 7 4 7 6 3 1 2 2 2 3 2 4 6 8 7 4 1 3 5 4 5 9 7 5 7 9 10 10 9 10 10 8 7 8 10 10 12 16 17 17 19 20 18 17 16 16 16 16 15 15 15 14 12 11 10 8 8 7 7 9 9 10 10 10 11 12 13 13 14 14 15 14 13 13 13 13
5 3 5 4 6 6 7 5 4 7 7 5 5 5 2 2 3 3 2 3 3 6 6 7 9 6 4 5 4 3 5 11 11 8 10 12 11 9 7 9 9 8 8 8 9 8 9 13 15 15 16 16 16 16 15 15 15 16 16 15 15 14 12 11 10 9 9 8 7 7 7 8 9 10 11 12 13 14 14 15 16 15 14 13 14 15
5 5 4 3 6 8 8 5 3 4 6 5 5 6 4 1 0 2 2 1 4 6 5 4 9 6 4 3 2 5 8 10 10 7 9 12 13 10 7 8 8 8 8 7 7 7 6 8 11 12 12 14 16 15 13 13 14 16 16 15 15 14 11 10 8 8 8 8 8 7 6 7 7 8 10 11 12 13 14 14 15 16 15 14 14 14
4 6 6 5 4 7 9 7 5 4 5 6 5 6 6 4 4 5 3 1 3 3 4 1 5 3 2 1 2 5 9 8 9 9 7 9 11 10 8 7 7 7 7 6 6 6 6 7 8 9 11 14 16 13 10 12 15 17 17 15 15 13 10 9 8 8 7 8 8 8 7 7 7 8 9 10 11 12 12 13 14 15 14 14 14 14
7 6 6 7 4 6 9 7 7 6 5 6 5 6 5 5 5 4 4 3 3 2 3 2 2 2 1 1 3 4 10 9 11 10 8 8 8 8 8 7 7 7 6 6 5 6 6 8 9 11 12 14 13 10 11 14 16 17 16 15 14 12 11 10 10 10 10 9 8 8 9 10 10 10 10 10 10 11 11 11 11 12 13 13 13 13
9 7 5 6 5 7 9 6 7 8 4 4 4 6 5 5 5 2 3 6 4 3 1 1 1 1 1 1 2 7 11 11 11 10 11 10 8 9 8 6 6 6 5 6 5 5 7 10 11 12 14 14 13 13 15 17 17 16 16 14 13 12 12 12 12 13 14 13 12 11 11 12 11 11 11 11 11 11 11 11 10 11 12 12 12 12
7 5 5 4 6 7 8 8 8 7 5 3 4 6 5 4 6 2 2 2 4 4 1 1 1 1 2 0 1 9 12 11 11 10 11 11 10 9 7 6 6 6 6 6 5 5 6 9 11 13 15 16 16 17 18 18 17 16 14 13 13 13 13 13 14 14 15 14 14 13 12 12 11 11 12 12 13 12 12 12 12 11 11 12 12 13
5 3 6 5 8 9 7 8 9 9 8 5 6 7 3 4 2 1 2 1 3 3 1 1 2 3 3 1 3 10 12 12 12 11 11 12 11 10 8 7 7 6 6 5 5 5 7 9 12 16 17 16 16 17 17 18 17 16 15 14 15 15 14 13 14 15 15 16 16 17 16 15 15 14 14 14 14 13 13 14 14 13 13 13 13 13
4 2 6 5 9 8 5 6 6 8 7 5 6 7 5 3 3 1 3 2 2 2 1 1 3 4 4 3 7 12 13 14 14 12 12 12 11 9 8 8 8 7 6 5 5 5 7 10 14 19 19 16 16 16 16 16 16 17 17 15 15 15 14 13 14 15 17 17 17 17 17 16 16 15 15 15 15 16 17 17 17 16 15 15 14 14
2 2 4 4 7 6 4 4 6 7 3 3 5 6 4 4 4 3 3 3 4 3 2 3 3 4 3 5 10 14 14 15 16 14 12 11 10 9 9 8 7 7 5 6 7 6 9 13 16 19 19 17 17 16 15 15 15 15 16 15 16 16 15 15 16 17 18 17 16 16 16 16 16 15 15 15 16 17 19 19 19 19 19 17 16 16
1 2 3 4 3 5 4 5 7 7 4 4 5 5 3 2 2 2 1 2 5 4 3 3 3 4 3 5 10 13 13 13 14 13 11 10 11 10 9 9 7 6 6 6 7 7 10 14 17 20 20 18 18 17 16 17 16 16 17 18 18 18 18 18 18 18 17 16 16 16 16 16 15 15 14 14 14 16 17 18 18 19 20 20 19 18
1 2 2 2 1 5 6 5 6 10 9 7 6 6 5 4 4 3 2 1 3 4 4 5 3 4 3 3 8 10 10 10 12 12 11 11 11 10 9 9 7 6 6 7 7 8 11 14 16 18 18 18 19 19 20 21 21 21 21 21 20 20 19 19 18 18 17 17 17 17 17 17 17 16 15 14 14 15 15 16 17 17 19 21 21 20
3 3 2 2 3 6 7 4 5 11 10 7 6 5 5 4 5 6 5 3 3 3 2 3 1 3 4 1 6 8 8 10 11 12 12 10 10 9 8 7 7 7 8 8 8 10 11 13 15 17 18 20 21 22 23 23 23 23 23 22 21 20 20 19 18 18 18 18 18 18 19 20 20 19 17 16 16 15 15 15 15 16 17 20 22 20
3 3 1 2 3 4 5 4 1 4 6 5 3 3 5 5 5 6 5 4 4 3 2 3 0 3 2 3 8 9 10 10 10 12 13 11 8 9 9 8 8 9 9 8 9 10 12 14 15 16 18 20 21 22 23 23 23 23 22 21 21 20 19 18 18 17 17 18 17 17 18 20 21 20 18 18 17 16 16 15 15 15 16 18 21 21
3 2 2 1 2 3 3 2 2 1 3 3 3 3 5 6 6 5 3 4 3 4 5 5 3 3 3 7 10 11 12 11 10 12 14 12 9 8 8 8 9 10 9 9 9 10 12 13 14 15 18 20 21 22 22 22 22 22 21 20 20 19 18 17 16 16 17 17 17 16 16 17 19 20 19 18 18 18 17 16 15 16 16 17 20 20
4 3 3 3 3 3 3 4 3 4 3 1 2 4 4 7 9 5 3 4 3 4 4 5 4 2 5 11 13 13 13 13 12 12 12 12 11 10 9 9 9 9 9 10 10 9 10 12 13 15 18 20 21 21 22 22 22 21 21 20 19 18 17 16 15 16 17 16 17 17 16 15 16 18 19 19 19 20 19 18 17 17 16 17 19 21
3 3 4 5 6 6 6 6 4 3 4 2 3 6 5 5 7 7 5 3 4 4 3 3 5 7 9 12 14 14 15 14 13 13 12 11 12 11 10 10 9 8 9 9 9 10 10 11 13 15 17 20 21 22 22 21 21 21 21 20 18 17 16 15 15 16 16 16 16 16 16 15 14 15 17 17 18 20 20 21 21 20 19 19 21 23
4 3 5 5 3 3 4 4 3 2 4 4 4 7 7 6 7 7 4 5 6 6 2 3 8 13 12 12 13 15 15 15 14 13 12 11 11 11 10 11 12 10 9 9 9 11 11 10 11 15 17 19 21 22 21 21 21 20 20 19 17 16 16 15 15 15 16 16 16 15 14 14 13 14 15 15 16 19 20 21 22 23 23 22 23 23
5 4 6 5 3 3 3 3 4 3 4 3 3 3 4 6 9 9 6 6 8 6 5 9 13 14 14 15 15 15 15 15 14 12 12 12 12 12 12 13 13 12 11 9 9 10 10 9 11 14 17 19 21 21 21 21 20 20 19 18 17 16 16 16 16 16 16 15 15 14 13 13 13 13 13 13 14 15 18 19 20 22 24 24 24 23
4 3 5 5 4 6 7 6 6 4 4 5 6 4 2 2 7 6 4 5 7 3 6 15 13 7 7 11 12 12 13 13 12 12 12 13 14 14 14 13 12 12 11 10 10 9 10 11 13 16 17 19 20 20 20 20 20 20 19 18 16 15 15 16 17 17 16 16 15 14 13 13 14 13 13 14 14 14 15 16 18 19 22 24 25 24
3 3 2 5 5 6 6 6 8 5 3 6 7 8 8 6 4 5 4 6 8 7 8 14 11 3 2 7 10 11 12 13 13 13 13 13 15 15 14 12 12 12 11 11 10 10 10 12 15 17 18 18 18 19 19 19 20 20 19 17 16 16 17 18 18 17 16 15 14 14 14 14 14 14 15 15 15 15 14 15 16 17 19 22 24 25
4 2 1 5 5 4 5 5 7 6 4 8 7 9 8 5 2 1 1 3 7 11 12 11 7 5 5 10 12 11 13 15 16 15 14 13 14 15 15 13 12 12 12 11 11 11 10 12 16 18 19 20 19 19 19 19 20 19 18 18 17 18 19 19 19 17 16 16 15 15 16 15 16 16 16 16 16 15 14 14 16 17 18 20 22 23
5 5 2 3 4 2 5 4 6 6 4 2 3 4 3 1 1 0 2 1 8 15 13 7 6 9 12 15 15 14 15 16 16 15 14 14 14 14 14 14 13 12 12 12 11 11 12 14 18 21 22 23 22 21 20 21 21 20 19 19 18 19 20 19 18 17 17 18 18 18 18 18 18 18 18 16 15 14 14 15 17 18 19 20 21 22
5 8 4 2 4 3 5 4 7 5 1 3 2 2 5 3 2 2 2 3 5 7 5 3 7 13 16 17 18 18 16 15 14 13 14 14 14 13 13 13 12 12 12 11 11 13 15 18 21 23 24 24 24 23 22 22 22 21 20 19 19 19 19 18 18 18 19 20 20 20 20 20 20 20 19 18 17 16 17 18 19 20 20 21 22 23
6 6 3 2 4 3 2 4 5 3 4 3 4 2 5 5 7 7 5 5 4 3 5 9 13 17 16 14 15 14 12 11 9 9 11 12 12 14 15 13 12 12 12 11 11 14 17 20 21 22 24 24 24 24 23 23 22 21 19 19 19 19 18 18 19 19 20 20 20 21 21 21 21 21 20 20 20 20 20 21 21 22 22 23 23 23
8 6 3 2 3 3 2 3 3 4 3 3 4 2 4 7 8 7 4 5 5 2 7 12 13 14 14 13 12 12 11 10 9 5 6 9 10 12 13 12 11 12 11 12 15 17 21 23 24 24 24 25 25 25 24 23 22 21 20 20 19 19 19 19 19 20 20 21 21 21 21 21 21 21 21 21 21 22 22 22 22 23 23 24 24 24
6 6 4 3 2 3 3 2 0 2 3 2 2 3 5 6 6 6 3 1 4 2 6 13 14 14 14 13 12 12 13 12 8 4 4 9 11 12 13 13 14 14 15 17 20 23 25 26 26 26 26 26 26 25 24 22 21 21 21 20 19 19 19 19 19 20 21 20 20 20 20 20 21 20 20 20 21 22 22 22 22 23 23 24 25 25
4 4 5 4 2 3 4 2 1 1 2 5 6 7 6 5 6 7 5 1 4 3 6 13 16 16 16 15 14 14 13 11 6 3 5 10 12 13 15 17 18 19 20 21 22 23 25 26 26 26 27 26 25 24 23 22 21 21 21 19 19 19 18 19 19 19 20 20 19 19 19 20 20 20 20 20 21 21 21 21 21 22 23 24 24 25
7 4 4 5 3 3 4 3 3 3 4 6 7 7 6 6 6 5 3 2 5 6 7 13 16 16 17 17 17 16 13 9 7 6 8 12 14 14 15 16 18 21 22 23 23 23 25 26 26 26 26 25 25 24 23 21 20 20 20 19 19 18 18 18 18 18 19 19 18 18 18 19 19 19 19 19 19 19 20 20 21 21 23 23 24 24
6 4 4 5 3 3 4 2 2 3 4 5 4 5 6 6 6 7 1 5 8 11 11 14 17 16 16 16 16 14 11 9 9 9 10 13 15 17 18 18 19 21 22 22 22 23 25 27 27 26 25 25 24 24 22 21 20 19 19 18 18 18 18 17 16 16 16 17 17 17 17 17 18 18 18 18 18 19 20 20 21 22 24 24 24 24
4 3 3 4 3 4 4 2 1 3 5 4 4 6 8 6 6 4 5 5 9 14 12 13 16 15 16 16 13 8 4 5 10 12 13 14 14 15 19 23 23 22 22 21 21 23 26 28 27 26 25 25 24 23 22 21 20 18 18 17 17 17 17 16 15 14 14 14 15 16 16 17 17 17 17 17 17 18 19 19 20 22 23 24 24 24
1 2 2 3 3 3 3 2 0 3 4 3 5 4 4 5 3 6 5 3 11 15 13 13 14 13 14 12 7 5 7 12 15 14 13 14 13 13 17 22 22 21 21 21 21 23 27 29 28 26 25 24 23 21 21 21 20 18 17 16 16 16 15 14 13 13 14 14 14 15 16 16 16 16 16 15 15 16 17 18 18 20 21 22 23 24
3 2 1 2 3 2 2 2 1 3 4 8 10 3 1 3 5 4 2 4 9 13 13 13 12 11 11 9 7 10 14 17 17 14 13 13 14 15 18 19 19 19 20 22 23 26 29 30 28 26 25 23 22 20 20 20 19 18 16 15 15 14 14 13 13 13 14 14 14 14 14 14 14 14 14 14 14 15 15 16 17 18 19 21 23 24
2 3 2 2 3 3 3 2 3 4 4 5 7 4 3 3 4 5 6 6 7 9 10 11 11 10 9 10 11 14 16 17 16 15 14 14 14 15 18 18 19 20 22 23 25 28 30 29 27 27 26 23 21 20 19 18 18 18 17 16 15 14 13 13 12 12 13 13 13 13 13 12 12 12 12 12 12 12 13 15 16 18 19 21 22 24
2 3 4 3 2 3 4 5 4 3 3 1 1 1 3 4 3 5 8 9 8 8 8 10 11 10 10 12 14 14 14 15 15 15 14 14 13 15 17 18 21 23 24 24 25 28 30 29 28 27 26 24 22 21 18 17 17 17 17 16 15 13 12 12 12 12 12 12 12 11 11 10 10 10 10 10 10 11 12 13 14 16 18 20 21 22
2 1 3 3 1 1 1 2 2 3 3 2 4 3 3 4 4 5 8 9 8 8 9 10 11 11 12 14 15 13 13 14 15 14 13 12 12 14 17 19 21 24 24 23 25 28 30 29 28 28 26 23 22 21 18 16 15 15 14 15 15 13 11 11 10 10 10 10 9 9 8 8 7 7 8 8 9 10 11 12 13 14 15 17 19 21
2 1 3 3 2 2 1 3 3 3 2 2 5 5 5 5 4 3 6 7 8 8 10 11 12 12 12 13 15 15 14 15 15 13 12 11 11 14 17 19 20 23 24 24 26 29 29 28 27 27 26 23 22 20 17 15 13 12 12 13 14 13 10 9 8 8 8 8 7 6 6 7 7 7 7 8 8 9 10 11 12 12 13 15 17 19
1 3 3 3 3 2 1 3 2 3 3 3 4 4 4 5 6 5 6 7 9 10 10 11 13 13 12 12 15 16 15 14 15 15 13 11 13 16 18 20 22 23 24 25 28 29 28 28 27 27 25 23 21 18 16 14 13 13 13 14 14 14 12 10 8 7 7 7 5 5 5 6 7 7 7 8 8 9 10 11 11 11 12 13 15 17
1 3 2 2 4 3 1 2 3 4 4 4 4 3 4 6 8 8 8 9 11 12 12 12 12 13 13 14 15 17 17 14 14 15 14 12 13 16 19 22 23 23 24 26 27 27 27 28 27 26 24 21 19 18 18 18 18 18 19 19 17 16 15 14 12 11 10 8 7 6 6 6 6 7 7 7 8 8 9 10 10 10 11 11 12 13
2 2 2 4 4 2 3 5 5 3 1 0 2 4 5 6 9 11 11 11 13 13 14 14 12 12 15 17 17 17 16 14 14 16 15 13 16 20 22 24 24 23 24 26 26 26 27 26 25 24 22 20 20 20 20 20 20 20 20 19 17 16 16 16 14 13 12 10 9 8 7 6 6 7 7 7 7 8 9 9 10 10 10 11 11 11
3 5 5 5 3 4 5 7 5 3 3 3 4 5 6 7 10 12 11 12 13 13 13 14 14 13 14 16 19 19 16 15 17 18 14 14 19 23 24 25 24 23 24 27 27 26 25 25 24 22 21 20 20 20 19 18 17 17 17 17 16 15 15 14 13 12 11 10 10 9 8 7 7 7 6 6 7 8 9 10 10 10 10 11 11 11
Wind_Direction
149 174 201 199 195 181 173 167 172 179 161 153 146 149 170 184 260 265 258 288 100 107 7 102 89 33 170 176 121 127 146 185 111 107 121 132 124 120 119 121 118 112 112 107 103 107 114 122 127 128 126 125 123 123 123 124 127 132 138 148 158 163 182 212 226 230 234 247 256 262 264 264 274 286 289 291 295 299 305 311 310 311 313 313 311 304
158 197 212 192 169 158 157 158 171 185 180 162 151 166 205 201 245 270 272 308 56 95 344 65 80 40 13 109 125 140 143 156 157 142 145 132 119 119 123 124 121 119 117 109 106 107 109 114 119 119 119 119 117 118 120 121 123 126 129 134 142 156 194 236 259 259 251 258 268 281 301 318 319 316 314 312 314 315 317 318 317 317 317 319 320 314
198 214 190 167 157 144 146 159 171 188 190 187 169 153 218 234 241 285 299 329 40 99 357 63 85 68 50 105 135 145 142 151 154 144 140 134 128 129 130 129 127 118 109 108 109 108 109 108 107 108 108 110 110 108 109 110 110 111 108 107 110 117 143 188 243 243 218 236 272 306 322 324 320 326 330 330 328 323 318 318 318 318 319 324 327 325
202 228 176 161 151 138 142 167 169 188 197 182 162 155 218 223 162 275 308 350 23 89 132 101 88 91 85 90 108 120 125 126 129 124 117 121 122 123 126 125 121 113 108 113 110 108 110 105 99 99 100 104 107 104 102 104 105 104 101 99 99 98 101 110 326 333 10 148 196 328 331 320 321 332 331 325 327 326 321 316 313 312 316 322 325 325
222 243 167 152 159 153 153 178 172 178 210 199 170 178 202 184 168 193 238 10 35 51 116 102 71 34 131 135 126 97 92 83 75 89 91 95 102 109 120 115 106 105 111 114 109 109 107 101 96 93 95 99 100 98 97 99 101 102 100 95 94 93 85 70 15 346 338 345 9 11 10 356 357 6 359 352 351 347 342 335 328 322 318 317 317 319
243 252 157 154 176 172 165 188 183 173 190 224 215 204 183 155 172 175 57 54 60 26 236 118 89 313 198 166 155 135 123 105 76 90 110 109 102 111 120 111 104 103 106 101 100 108 102 99 96 88 88 91 91 93 95 98 99 98 97 94 90 88 78 65 45 18 354 360 18 30 42 43 37 31 27 23 16 8 5 0 354 346 337 329 322 317
213 215 169 169 175 174 184 205 195 168 159 219 235 200 163 141 155 150 74 62 99 212 246 163 133 204 234 197 169 151 144 132 136 151 130 120 119 128 118 110 112 109 103 95 94 101 96 95 94 86 84 88 89 94 97 99 99 96 95 93 86 82 75 66 59 45 24 25 37 48 54 54 51 46 41 36 31 25 20 14 11 9 4 357 348 334
172 181 188 184 173 179 199 209 192 162 152 225 217 141 144 157 168 175 179 208 207 244 268 165 126 139 212 202 171 148 148 147 151 150 128 114 113 121 115 111 112 111 109 105 98 93 90 89 91 91 87 86 92 98 97 96 97 93 92 91 85 83 79 69 65 62 61 60 59 61 60 58 57 52 46 39 34 32 27 23 22 23 23 21 16 6
167 180 194 185 183 199 198 178 164 158 168 227 154 130 155 177 179 184 192 221 223 252 271 213 122 129 222 204 156 149 157 159 152 141 128 128 137 128 123 117 110 111 110 105 97 89 91 89 91 95 92 88 91 96 95 94 95 92 91 90 83 80 80 71 62 58 64 66 63 64 60 54 53 48 44 37 30 28 24 23 23 23 23 24 27 24
194 184 185 177 194 202 172 156 157 164 195 207 131 112 139 174 170 175 186 209 190 214 236 199 145 138 227 225 177 173 175 170 151 136 135 139 140 135 128 120 112 110 105 100 96 90 94 94 93 95 95 91 91 93 94 92 93 93 89 85 78 73 73 69 62 56 59 57 53 55 51 43 37 30 25 20 16 16 14 15 17 19 18 14 15 15
263 181 177 181 201 182 153 167 166 168 180 152 120 86 65 173 48 77 147 108 118 259 237 186 169 144 164 227 200 187 177 161 156 152 149 140 132 132 126 119 116 111 105 101 99 96 99 99 97 96 95 95 95 94 91 88 91 91 86 84 81 74 70 66 65 64 62 56 51 52 47 39 32 23 17 14 13 11 9 10 10 12 10 6 5 5
267 210 188 174 176 153 145 177 175 165 159 126 116 109 112 298 10 33 1 70 165 249 256 188 168 150 189 224 192 178 170 156 155 156 151 142 132 129 120 116 118 115 111 106 104 106 104 101 100 99 101 104 101 92 85 84 88 89 87 88 85 78 73 68 65 62 59 55 50 46 41 35 30 24 20 20 19 16 13 10 7 5 1 355 350 353
245 250 249 185 171 158 152 170 171 169 161 132 118 127 147 236 323 207 235 186 205 244 280 192 159 159 219 246 167 165 162 151 144 137 140 139 133 126 115 115 119 117 117 113 111 112 102 101 106 109 111 109 103 94 83 84 91 91 88 89 87 82 77 69 62 56 52 49 46 43 41 37 29 24 24 25 23 20 17 13 11 8 6 1 352 353
223 276 263 206 187 168 163 170 175 186 175 164 158 148 160 165 167 209 220 230 235 240 312 295 161 186 206 1 345 152 144 130 116 107 114 127 126 120 114 117 117 113 114 111 112 112 106 108 109 109 105 99 98 95 85 91 100 98 93 93 93 87 78 69 62 54 49 47 44 42 37 27 17 13 16 20 20 19 18 17 17 15 12 10 6 6
190 244 239 198 195 169 174 179 160 151 159 174 159 132 160 176 163 197 199 182 214 214 324 337 176 219 150 24 338 118 122 112 109 108 111 115 114 112 111 113 111 105 102 100 100 104 112 117 108 98 92 87 89 92 97 107 110 104 101 100 97 90 83 74 62 54 52 53 51 46 42 39 38 36 34 34 32 29 27 24 21 19 15 11 8 9
185 234 247 197 197 172 173 176 143 135 160 184 137 130 190 196 143 122 178 172 163 145 352 350 130 358 56 24 26 109 113 111 115 116 118 119 116 114 110 111 109 103 104 106 106 113 118 113 102 93 88 84 91 102 107 112 113 110 108 103 99 96 90 78 67 62 61 63 63 58 54 51 49 48 47 46 44 42 40 36 29 23 19 13 7 3
173 248 282 183 199 199 173 166 164 165 176 165 154 178 199 162 126 122 185 138 106 128 162 324 110 86 107 12 93 118 115 118 127 127 129 128 123 121 118 120 118 114 121 120 120 124 116 110 104 99 95 92 99 105 106 109 112 111 106 103 103 100 92 81 71 63 58 57 59 57 54 52 50 50 50 50 48 43 37 33 27 20 16 13 7 1
155 223 272 174 190 223 184 162 186 181 157 147 185 188 133 89 117 143 155 56 63 128 223 311 168 170 169 199 160 135 129 136 140 136 137 133 130 131 127 127 126 124 127 120 114 111 109 113 108 100 97 99 104 106 106 112 114 106 99 101 101 95 92 86 71 61 59 61 63 62 62 63 62 61 57 51 43 35 27 23 20 16 14 13 9 3
144 181 264 198 181 209 169 148 201 200 171 159 181 170 132 156 212 150 161 185 127 138 241 220 189 208 208 188 167 156 151 152 148 143 144 138 135 135 128 128 129 127 128 119 115 112 107 107 101 98 100 103 106 107 109 115 115 107 102 101 95 89 90 88 75 70 71 71 70 68 66 65 63 59 53 43 34 28 27 26 25 23 20 15 10 5
126 137 265 241 186 177 145 155 203 214 204 107 142 164 158 175 185 162 169 166 140 154 187 162 182 222 210 183 179 172 163 157 152 149 148 137 133 136 132 134 132 130 136 128 121 113 101 99 98 102 105 103 104 104 103 106 111 113 110 101 93 91 92 89 81 78 75 72 71 67 63 59 55 52 45 38 32 30 31 31 29 29 25 20 16 12
80 142 245 279 212 165 182 207 187 180 177 134 149 179 176 140 136 146 160 114 124 148 158 152 206 237 200 181 184 175 163 158 152 147 142 133 134 140 137 136 135 133 134 123 113 105 103 104 104 106 106 104 101 97 93 96 104 112 111 102 97 96 93 88 83 79 74 70 67 62 58 53 47 45 41 36 35 34 33 31 29 29 27 24 22 18
135 156 190 280 243 189 221 232 164 166 174 164 170 189 178 147 119 136 218 234 104 127 158 159 200 253 265 196 175 166 155 151 144 136 133 132 135 138 133 134 136 130 120 111 106 106 110 111 108 105 101 96 92 88 90 96 100 104 103 101 100 96 91 88 85 80 74 69 66 61 58 54 50 49 49 47 45 41 37 33 29 28 27 25 23 22
153 126 156 239 232 214 238 263 180 176 169 156 180 187 158 143 133 150 201 210 95 89 126 119 131 270 290 149 143 145 142 138 134 128 127 131 135 133 129 125 118 111 111 110 107 108 107 103 98 95 89 85 85 90 95 97 97 98 99 100 99 94 90 89 87 82 77 73 70 66 61 57 56 56 56 55 53 48 41 36 32 30 27 24 23 25
165 124 132 269 292 293 298 335 2 174 144 139 197 174 146 162 157 155 178 165 131 143 125 89 73 255 251 128 125 131 133 131 131 130 129 133 138 134 129 121 114 114 114 110 106 103 98 91 88 87 84 83 88 94 97 97 96 97 98 99 97 94 92 91 88 85 81 76 72 69 65 61 59 58 58 56 54 51 43 38 37 37 33 23 20 24
203 172 102 61 357 346 334 26 41 220 183 170 191 173 155 139 119 123 134 106 133 192 162 141 198 241 164 134 129 132 134 133 136 139 137 139 141 134 127 123 123 122 117 112 109 102 96 91 89 88 88 89 93 97 98 97 97 97 97 97 97 96 93 91 90 87 83 77 72 70 68 64 60 58 59 57 54 52 47 44 44 45 41 28 19 24
186 176 129 148 161 156 184 192 199 202 205 213 162 164 157 131 128 139 126 109 164 202 158 151 191 208 144 139 139 141 140 139 143 146 144 143 140 137 132 129 127 123 120 117 112 107 101 95 92 90 91 96 99 101 99 99 98 98 98 98 97 96 95 93 90 85 80 76 71 68 66 64 61 59 60 59 54 51 50 50 50 49 46 36 27 29
132 160 153 152 170 184 191 211 228 168 163 196 163 160 177 159 134 113 108 148 181 163 166 203 161 144 151 151 150 151 148 146 150 150 148 144 138 135 133 128 123 120 121 119 115 110 104 98 94 93 95 100 103 104 103 102 101 100 99 97 96 97 97 94 90 82 75 73 70 66 63 63 63 61 60 59 55 51 51 51 50 50 49 44 39 38
105 179 178 127 132 226 208 221 293 72 149 180 163 165 186 175 133 118 141 180 155 135 192 223 152 148 163 165 160 158 154 150 152 151 148 142 135 133 130 125 123 122 121 118 115 113 109 103 100 97 99 104 106 106 105 103 102 101 99 97 97 98 97 95 91 83 76 74 71 66 63 65 68 65 61 60 57 53 52 51 49 48 48 46 44 41
116 180 185 123 70 352 359 355 2 55 112 87 70 145 180 174 160 159 177 171 151 156 189 178 166 167 171 169 165 160 152 148 147 145 142 137 134 134 133 131 131 130 127 122 117 115 113 110 105 102 104 109 109 107 107 105 104 102 100 100 100 100 97 94 89 84 80 77 72 68 67 70 72 70 67 67 65 58 53 50 47 45 43 42 42 40
130 185 181 134 84 18 9 12 25 54 108 63 29 20 33 160 163 147 143 137 119 112 155 157 160 165 161 161 156 147 142 139 138 140 141 140 139 138 138 137 136 134 130 123 117 115 113 109 106 105 107 110 111 110 109 107 105 103 101 101 102 99 96 94 90 85 81 77 72 72 74 74 74 73 72 72 70 65 59 51 46 42 38 37 38 38
133 191 179 113 73 360 345 21 32 22 96 86 40 16 26 37 75 89 110 120 89 74 119 135 133 104 99 132 131 135 140 140 142 147 146 146 145 143 141 140 138 135 130 125 121 117 113 110 108 107 109 112 113 114 113 109 107 106 105 102 100 96 95 94 91 85 80 76 76 78 78 76 74 73 72 71 69 67 63 55 49 45 40 36 36 37
107 123 62 82 78 330 322 35 38 11 57 83 42 9 14 23 60 106 185 160 128 124 124 124 137 164 154 133 129 139 147 146 150 151 148 149 150 147 145 144 142 139 134 130 126 121 118 115 112 112 113 115 117 117 116 114 111 110 108 104 100 97 96 95 91 84 80 79 81 82 79 76 75 73 72 70 68 65 61 53 49 47 45 41 37 35
134 134 125 93 105 278 307 28 46 19 27 72 6 347 334 315 187 239 335 76 134 135 138 158 180 163 148 141 143 152 158 157 157 155 150 151 151 147 146 144 143 141 137 133 128 123 119 116 116 118 121 124 125 125 123 119 116 114 111 107 103 100 98 97 93 86 83 84 84 83 81 79 77 74 72 70 68 64 59 52 49 48 46 43 39 35
131 131 138 107 118 211 290 23 60 44 293 234 274 253 225 213 133 107 45 66 119 126 130 137 139 142 148 152 156 159 162 159 156 155 155 153 151 148 146 144 142 139 135 131 128 126 124 123 124 127 131 132 131 129 126 122 119 117 114 111 107 103 101 101 96 89 87 88 87 85 83 80 77 75 73 71 69 65 60 57 54 51 46 42 39 36
119 115 118 71 108 169 303 53 103 186 240 272 332 285 202 147 114 99 57 26 18 62 109 117 134 148 152 151 150 147 143 136 131 141 150 150 150 146 142 142 141 138 137 135 132 132 131 131 132 132 132 132 131 130 128 125 123 121 118 115 111 107 107 105 98 92 91 91 89 86 83 81 79 77 74 73 70 67 64 59 55 51 46 44 41 39
127 124 117 67 92 132 66 76 164 226 276 336 355 347 141 122 116 106 62 7 347 26 133 132 136 144 138 132 134 129 119 108 88 84 121 129 133 136 135 137 138 136 137 136 134 135 135 136 135 132 131 132 133 133 131 129 127 124 121 118 115 113 113 110 102 95 93 91 89 87 85 83 82 79 77 74 71 67 63 58 55 51 48 47 45 42
121 129 116 75 73 126 115 116 186 332 320 295 261 208 170 153 155 144 131 283 311 319 149 140 136 137 133 129 131 127 120 109 88 57 101 117 122 126 125 129 134 135 136 137 138 138 138 137 135 133 134 135 136 135 133 131 130 128 124 121 119 119 118 114 107 98 93 91 90 89 88 87 85 82 79 75 71 67 63 59 56 53 50 48 45 42
75 120 134 126 120 114 109 103 65 35 271 244 225 212 187 164 165 146 122 218 271 258 172 148 141 141 137 134 137 135 127 122 123 152 148 133 130 128 127 132 137 139 139 139 139 138 137 138 136 136 138 137 136 137 136 135 135 133 129 125 124 124 121 116 110 102 95 91 91 90 89 88 87 84 81 77 72 69 65 62 59 55 51 49 45 42
57 62 93 105 120 129 118 130 163 192 238 233 214 200 173 155 149 116 74 273 222 196 172 151 146 149 147 146 148 147 146 152 166 173 160 146 139 136 136 137 139 141 141 142 143 141 139 141 140 140 140 138 137 139 140 140 140 138 135 131 128 126 122 118 114 106 98 94 92 92 91 89 88 85 82 78 74 71 67 64 60 56 52 49 46 43
46 33 63 98 126 140 122 134 195 220 255 242 197 168 160 141 108 96 48 256 193 172 170 159 155 156 154 152 156 160 167 174 168 160 155 146 140 140 140 139 140 141 141 145 146 142 142 144 144 142 143 141 141 143 145 145 143 141 140 136 131 126 122 118 115 109 104 100 96 95 94 90 88 85 81 78 74 71 68 63 59 54 50 47 46 44
31 19 73 117 130 129 126 142 241 249 255 237 164 155 152 117 90 137 218 233 174 164 166 162 158 158 158 159 164 171 162 121 128 140 145 140 137 139 140 140 141 143 144 146 147 143 144 148 148 147 146 145 144 146 148 148 146 144 142 137 132 128 123 117 115 113 110 107 102 99 96 91 87 83 80 77 73 69 66 61 55 50 47 44 42 41
104 48 69 114 125 131 133 124 352 273 252 163 124 145 151 123 154 213 222 186 161 160 158 157 160 162 160 156 149 133 116 115 125 137 141 138 137 137 139 139 139 142 145 147 147 147 148 150 151 150 149 149 148 148 149 150 148 145 142 138 133 131 128 122 119 117 116 112 106 101 96 91 87 83 80 76 71 66 63 58 52 47 43 40 38 37
159 131 111 154 148 119 76 81 108 254 223 142 124 125 248 179 195 206 136 126 156 156 151 153 159 161 156 141 121 123 127 127 133 138 137 137 137 137 141 142 138 139 144 145 145 148 150 150 152 152 152 151 149 147 149 151 149 145 142 139 138 138 136 131 125 121 120 116 109 103 98 92 89 85 80 75 69 64 60 55 50 45 40 36 34 32
168 142 177 221 182 131 126 174 197 234 236 161 137 160 205 184 182 164 131 129 148 151 149 152 155 155 146 133 129 132 132 133 139 141 139 139 141 142 144 144 139 140 146 146 143 146 149 149 151 153 154 152 147 146 148 149 147 146 144 142 143 144 144 141 133 125 122 118 111 106 101 94 90 84 77 72 67 62 58 53 48 43 38 34 32 29
214 173 166 179 174 155 180 217 236 259 274 287 88 162 158 134 146 151 140 141 152 156 155 153 150 146 137 134 135 135 136 141 142 141 141 142 144 146 145 142 140 143 147 145 141 144 148 149 151 154 155 151 147 146 148 148 149 149 147 147 149 149 149 149 142 132 125 119 111 106 100 93 90 82 73 65 57 52 51 46 41 38 35 32 30 27
260 176 127 120 153 187 212 258 309 339 335 17 55 63 93 110 129 140 137 144 154 155 152 150 146 143 141 140 138 135 140 143 139 138 141 139 138 140 136 134 139 145 146 143 139 142 147 149 152 154 155 152 149 149 152 154 155 153 153 155 156 153 154 157 151 141 133 124 113 105 95 85 79 73 63 54 44 40 39 35 32 30 28 26 26 24
273 137 88 82 121 161 282 316 341 2 356 49 77 74 69 76 88 117 135 145 144 139 140 139 135 137 142 141 138 137 141 142 138 136 136 133 132 133 132 135 143 147 147 143 140 141 145 147 149 152 154 153 150 150 155 160 161 159 158 161 162 162 167 171 165 155 148 138 124 111 95 78 67 60 53 46 39 33 31 30 27 23 20 18 17 18
203 122 100 79 101 135 237 292 1 38 21 31 68 95 108 101 93 92 106 121 122 122 128 132 134 139 142 141 139 138 139 143 142 139 138 138 140 141 145 149 151 149 147 145 144 144 145 146 148 152 154 154 153 151 152 155 156 152 147 147 152 156 159 162 158 152 154 154 139 121 105 85 70 61 53 49 42 33 28 28 27 22 18 15 11 11
133 106 137 121 93 89 195 187 121 72 25 13 40 79 113 121 117 111 112 118 121 123 126 131 137 141 141 143 144 140 140 146 146 141 141 144 146 149 151 152 150 148 147 147 148 149 148 147 149 153 154 155 155 148 141 140 142 142 138 136 136 136 135 136 135 133 138 145 143 134 122 102 83 70 60 55 48 38 31 30 31 29 25 21 17 13
105 122 152 127 120 183 212 185 165 142 111 194 141 118 119 125 124 123 126 129 131 135 136 136 137 139 141 146 148 143 141 146 146 142 143 147 150 150 150 149 148 147 146 147 150 153 151 150 152 153 152 153 153 146 139 136 138 140 140 137 135 134 133 130 127 127 130 132 134 136 131 115 99 84 71 62 54 46 39 37 37 34 31 29 27 23
157 181 178 150 166 221 200 169 157 128 113 149 152 134 133 135 129 131 137 137 137 140 140 138 139 140 141 145 148 146 143 144 145 143 140 143 146 147 148 149 149 146 146 149 151 151 151 153 154 154 154 155 155 150 143 139 138 142 144 142 141 143 142 135 130 129 128 125 125 129 131 124 109 94 81 73 64 51 40 37 37 34 32 33 32 27
Height
752 760 762 759 760 761 762 765 765 766 767 769 773 774 774 774 772 765 759 755 753 759 769 774 777 779 776 773 776 781 785 787 787 787 787 785 785 788 791 793 794 794 795 795 796 798 799 801 802 804 805 806 808 809 810 810 811 812 812 813 813 813 813 814 815 815 815 815 814 814 814 814 814 814 815 815 815 815 815 816 816 816 816 816 817 818
752 760 760 755 757 758 760 762 762 764 767 770 773 774 776 777 772 765 759 757 754 760 778 782 784 789 783 778 780 778 782 789 789 790 791 786 785 789 792 794 795 794 795 796 798 799 801 803 804 805 806 807 809 810 811 812 813 813 813 814 814 813 814 814 814 815 815 816 815 814 813 813 814 814 814 815 815 815 815 815 815 815 815 816 817 817
757 759 756 754 755 755 759 760 761 764 767 770 773 775 778 775 772 767 759 758 755 761 782 787 786 793 788 781 782 779 780 784 783 783 785 784 786 790 793 795 796 795 795 797 799 801 802 804 805 806 807 808 809 811 812 813 814 814 815 815 815 814 814 814 815 815 816 816 816 815 814 813 813 814 814 815 815 815 815 815 815 815 815 815 816 816
763 758 752 752 752 755 761 762 761 765 767 770 774 777 779 773 772 772 765 763 762 765 781 788 788 793 791 786 785 782 781 782 782 782 783 784 787 791 794 795 796 795 797 799 800 802 803 804 806 807 809 809 810 812 813 814 815 815 816 816 816 816 816 816 815 815 816 816 816 815 814 814 814 814 814 814 814 814 814 815 815 815 815 815 815 815
759 752 747 750 752 755 761 763 763 767 771 772 772 773 775 772 770 770 768 767 770 777 778 782 794 798 792 791 789 786 787 787 788 788 788 790 790 792 795 795 797 797 798 800 801 803 804 805 807 809 810 811 811 813 814 815 816 816 817 817 817 818 817 817 816 815 815 815 815 815 814 814 814 814 813 813 814 814 814 814 814 814 814 815 815 815
755 748 745 750 753 755 758 763 764 765 772 774 769 767 769 770 768 769 768 767 780 791 779 774 797 806 795 792 792 790 790 792 794 794 793 795 795 797 798 797 799 801 800 801 803 804 805 806 808 809 811 812 812 813 815 817 817 817 818 819 819 819 818 818 817 816 815 814 814 814 814 814 814 814 814 815 815 815 815 815 815 815 814 814 814 814
751 746 745 749 753 756 759 762 761 762 772 775 765 762 766 766 768 769 768 772 783 789 775 768 789 805 800 793 791 790 793 795 797 797 795 796 799 800 800 800 801 802 802 803 806 806 806 807 808 810 813 814 814 815 817 818 818 819 819 820 820 820 819 819 818 817 816 816 815 815 815 815 816 816 816 817 816 816 816 816 816 816 815 815 815 814
744 746 749 749 751 757 760 761 758 757 769 771 760 761 766 766 768 770 770 775 778 777 773 768 778 799 803 793 789 790 794 798 796 797 797 798 802 803 801 802 803 804 805 805 808 808 808 809 809 812 815 815 815 817 818 818 819 820 820 820 821 820 820 820 820 819 818 818 817 816 817 817 817 818 818 817 817 817 817 817 816 816 816 815 815 814
739 745 749 749 752 756 756 754 753 755 763 762 755 758 761 761 765 767 770 775 775 778 781 775 777 796 802 792 792 795 797 801 798 797 799 801 805 805 802 803 805 806 807 806 809 810 810 811 811 813 815 816 817 818 819 819 819 821 821 821 821 821 821 821 821 820 820 819 819 818 818 818 818 818 819 818 818 818 817 817 817 816 816 815 815 814
737 739 741 746 751 751 749 747 747 753 758 755 753 756 756 759 763 765 771 775 777 783 786 781 779 793 803 797 797 801 800 803 804 800 801 802 804 804 803 804 806 808 809 807 810 812 812 812 813 814 815 816 818 820 821 820 820 821 821 820 821 822 822 822 822 822 821 820 820 819 819 819 819 819 819 819 818 818 817 817 817 817 816 816 815 814
735 732 734 740 742 742 743 744 745 749 752 750 754 758 760 764 764 768 773 775 784 789 781 779 779 786 801 799 794 796 794 795 801 803 802 801 802 803 804 805 807 809 810 809 811 814 814 814 814 816 816 817 820 821 822 821 821 822 821 821 822 823 823 823 823 823 822 822 821 821 820 820 820 820 819 819 818 818 818 818 818 817 817 816 815 815
738 736 735 732 731 735 739 744 746 746 748 750 755 762 768 772 771 775 779 779 791 790 773 774 778 780 792 793 788 789 786 786 793 799 800 800 802 804 805 806 808 809 811 811 813 815 816 815 816 817 818 819 820 821 822 822 823 822 821 822 823 824 825 825 825 824 824 823 822 822 821 821 821 821 820 820 820 820 819 819 818 817 817 816 815 814
743 740 735 729 727 730 738 748 751 749 751 754 758 766 778 785 786 788 788 789 793 784 774 777 776 778 789 791 787 787 785 786 790 795 799 800 802 805 807 809 810 811 812 813 814 816 817 817 818 819 819 820 820 821 823 823 823 823 822 823 824 825 826 826 826 825 825 824 824 823 822 822 822 822 822 821 821 821 820 820 819 818 817 816 815 815
751 743 735 733 730 726 732 747 755 755 756 759 761 767 779 788 794 798 796 795 790 780 780 781 774 780 793 793 789 785 785 788 790 795 800 803 804 807 810 812 812 813 814 815 816 816 818 819 820 821 820 820 820 822 824 825 825 824 824 825 825 827 827 827 827 826 826 826 825 825 824 824 823 823 823 823 822 822 822 821 820 819 818 817 816 815
755 751 738 734 733 726 729 738 743 748 754 757 757 762 772 775 779 789 789 787 786 782 783 783 780 788 797 796 791 786 786 790 793 797 802 805 808 808 812 814 814 815 816 816 817 818 819 821 821 821 822 822 822 824 825 825 826 825 826 827 827 828 829 828 828 828 827 827 826 826 826 825 825 824 824 823 823 823 822 821 821 820 819 818 817 816
750 748 732 726 726 723 728 732 731 740 753 756 753 759 767 762 761 775 780 778 780 781 785 791 795 799 799 798 795 789 790 795 797 801 804 807 810 811 814 816 816 817 818 818 820 821 821 821 822 823 824 825 825 825 826 826 827 827 828 829 829 830 830 830 830 829 829 828 828 827 827 826 826 825 825 824 824 823 822 822 821 820 820 818 817 816
747 745 729 724 726 721 725 728 726 735 747 754 755 757 755 747 750 767 779 783 779 777 790 804 805 804 802 800 798 794 795 799 801 804 806 808 811 813 816 818 819 820 820 821 821 822 822 821 823 824 825 826 827 827 828 828 829 829 830 831 831 832 832 831 831 831 830 829 829 828 828 827 827 826 826 826 825 824 823 822 821 821 820 818 817 816
740 741 728 724 728 723 719 723 725 726 733 747 754 749 744 747 752 758 770 782 780 780 799 811 805 802 802 801 799 798 798 800 802 805 807 809 812 815 817 819 820 821 821 822 823 823 823 823 824 825 826 828 829 829 829 830 831 831 832 832 833 833 833 833 833 832 831 830 830 830 829 829 829 828 828 827 826 825 824 823 822 821 820 819 818 817
733 738 731 722 725 722 718 726 733 728 724 733 739 735 741 755 761 760 768 776 779 792 808 808 804 802 799 798 798 795 797 799 801 805 808 810 813 815 818 820 821 822 823 823 824 825 825 825 825 825 828 830 831 831 831 832 832 833 834 834 834 834 834 834 834 833 832 832 832 832 831 831 830 829 829 827 826 826 824 824 823 821 821 819 818 817
728 738 735 723 719 720 721 730 739 737 730 729 732 733 737 746 751 756 764 765 771 795 810 805 805 802 791 791 794 790 792 795 798 804 807 810 814 816 818 820 821 823 824 824 825 826 825 826 826 827 829 831 832 833 833 833 834 834 835 836 835 835 835 836 836 835 834 834 834 834 833 832 832 830 829 828 827 827 826 825 824 823 822 820 819 818
728 737 737 728 722 723 726 727 730 736 736 735 738 741 740 741 744 749 759 761 764 784 801 802 802 796 784 783 787 787 790 793 795 802 807 810 814 816 817 819 821 823 825 825 825 826 827 827 828 829 831 832 833 834 834 835 835 835 836 837 837 837 837 837 837 837 836 836 836 835 834 834 833 832 831 830 829 829 828 827 826 824 823 822 821 819
728 735 737 734 730 728 723 717 718 724 727 730 734 739 740 739 744 753 761 765 764 771 785 790 787 786 784 780 781 786 789 792 796 801 806 811 813 816 817 819 822 824 825 825 826 827 829 829 829 830 832 833 833 834 836 836 836 837 837 838 838 838 839 839 839 838 838 838 837 837 836 835 834 833 832 831 831 831 830 829 827 826 825 823 822 820
724 731 735 733 730 725 718 714 716 715 716 722 724 729 736 736 739 749 756 761 766 771 780 780 774 779 787 782 780 787 790 793 798 801 807 812 813 816 819 821 823 824 825 826 827 829 831 831 831 832 833 834 835 836 837 838 838 839 839 839 840 840 840 840 840 840 840 839 839 838 838 837 836 835 834 833 833 832 831 830 829 827 826 824 823 821
722 729 735 732 727 721 715 715 716 714 716 722 723 725 731 730 729 736 743 749 760 770 773 774 776 783 786 783 783 788 792 796 801 803 807 813 815 817 820 822 823 824 826 828 828 830 832 832 833 834 835 836 836 838 839 839 840 840 841 841 841 841 842 842 842 841 841 840 840 840 839 838 837 836 836 835 834 833 833 831 830 828 827 826 824 822
724 732 736 738 737 732 728 727 725 722 719 719 721 723 724 724 727 734 741 745 754 765 763 759 773 786 784 783 786 789 794 800 803 805 807 811 816 818 820 822 824 825 827 829 830 832 833 833 835 836 836 837 838 840 841 841 842 842 842 843 842 843 843 843 843 843 842 841 841 841 840 840 839 838 837 837 836 835 834 832 831 829 828 827 825 823
722 730 733 739 745 745 743 739 734 730 724 720 720 721 721 724 726 731 740 744 749 763 762 753 768 786 785 784 789 791 796 801 804 806 807 809 814 818 820 822 824 826 829 830 831 832 833 835 837 837 838 839 840 841 842 843 844 844 844 844 844 844 844 844 844 844 843 843 842 842 841 841 840 840 839 838 837 836 835 833 832 830 829 828 826 824
719 726 727 730 736 737 733 730 730 727 722 721 722 721 722 723 722 727 737 742 746 758 764 763 771 782 784 785 789 791 795 800 804 806 808 810 814 817 820 822 825 828 830 831 832 833 834 836 838 839 840 840 841 842 843 844 845 845 845 845 845 845 845 846 845 844 844 844 843 843 842 842 842 841 841 840 839 838 836 835 833 831 830 829 827 826
716 725 727 728 734 737 731 728 732 729 722 724 723 720 721 722 724 728 732 737 745 752 762 772 774 776 780 783 785 789 793 797 802 805 807 811 814 817 820 823 826 829 831 832 833 834 835 837 839 841 842 842 843 843 844 845 846 846 846 846 847 847 847 847 846 845 846 845 845 845 844 843 843 842 842 841 840 839 838 837 835 833 832 830 828 827
712 722 728 730 735 742 739 733 734 735 735 740 737 727 725 725 723 724 728 737 740 737 748 769 774 771 775 779 781 786 790 794 800 804 807 811 814 818 822 825 827 830 832 833 834 835 836 838 840 842 843 844 845 845 845 846 847 847 847 847 848 848 848 847 847 847 847 847 846 846 845 845 844 843 843 842 841 840 839 838 837 835 833 831 830 829
709 719 726 727 730 738 740 737 737 738 738 746 750 743 738 736 729 728 736 744 742 739 749 765 772 771 774 777 782 787 790 794 800 804 807 811 815 819 822 825 828 830 832 834 835 837 838 839 842 843 845 846 846 847 848 848 848 848 848 849 849 849 849 849 848 849 849 848 848 847 846 845 845 844 843 843 842 842 841 840 838 836 835 833 832 830
708 721 726 723 728 739 742 737 738 741 739 742 750 751 746 743 738 739 745 748 749 757 764 767 773 779 780 781 785 790 792 795 800 804 808 811 814 818 822 826 829 831 833 835 836 837 839 840 842 844 846 848 849 849 850 850 850 850 850 850 851 850 850 850 850 850 850 849 849 848 847 846 846 845 844 844 843 843 842 841 839 837 836 835 833 832
707 723 728 723 730 744 745 738 737 742 741 739 746 754 754 751 748 747 749 747 747 760 772 775 775 778 781 783 788 792 794 797 800 803 807 810 813 816 821 825 829 830 832 834 836 837 839 841 842 844 846 848 850 852 852 852 852 851 851 852 851 851 852 852 852 852 851 850 850 849 848 847 846 846 845 845 845 844 843 842 840 839 837 836 834 833
709 719 726 727 735 746 748 743 742 744 741 739 750 761 763 760 757 755 754 750 747 754 766 769 765 768 775 781 787 793 795 796 798 799 803 808 813 816 820 824 827 830 831 834 836 837 839 841 843 845 847 848 850 853 854 853 853 853 853 853 853 853 854 854 854 853 852 852 851 850 849 848 848 847 846 846 846 845 844 843 841 840 838 837 835 834
712 715 725 730 734 745 750 746 749 754 749 747 760 768 764 759 758 759 760 758 755 756 758 758 759 766 773 776 780 786 789 792 795 797 799 803 808 814 820 823 826 829 831 833 835 837 839 841 843 846 848 849 851 853 854 854 854 854 854 854 855 856 856 856 856 855 854 853 852 851 851 850 849 848 848 848 848 847 846 845 843 842 840 838 837 835
715 720 731 737 738 746 751 746 750 758 755 755 764 768 764 761 762 765 768 768 765 762 760 760 764 768 771 774 779 785 789 793 797 799 801 803 805 810 817 822 826 829 831 833 835 837 840 841 844 846 847 849 851 853 854 855 855 855 855 856 857 857 858 858 858 857 856 855 854 853 852 851 851 850 850 850 850 849 848 846 844 843 841 840 838 837
714 719 730 743 746 747 750 748 751 757 760 764 769 767 764 763 762 762 765 768 770 766 763 765 769 771 773 778 783 789 794 798 802 804 806 807 809 812 816 822 826 828 831 833 834 837 839 841 843 845 847 849 851 853 854 855 855 855 856 857 858 859 860 860 859 858 857 856 855 855 854 853 853 852 852 852 851 850 849 847 846 845 844 842 841 839
713 715 722 739 750 752 754 759 761 762 762 762 763 761 758 757 755 753 756 766 772 768 765 767 770 773 777 783 788 792 795 799 807 812 811 810 812 815 818 822 825 828 831 834 835 837 839 841 843 845 847 850 852 853 855 855 856 856 857 859 860 861 861 861 860 859 858 857 857 856 856 855 854 854 854 853 852 851 850 849 848 847 846 844 842 840
712 713 715 728 748 756 756 758 763 761 751 746 747 749 749 749 749 748 751 762 771 768 764 766 770 774 779 785 790 793 794 799 809 814 812 812 814 816 819 823 826 828 831 834 836 838 839 842 844 846 848 850 852 854 855 856 857 857 859 860 861 861 861 861 860 860 859 858 858 858 857 857 856 856 855 854 853 853 852 851 850 849 847 845 843 841
716 720 720 727 745 754 748 749 758 754 741 734 736 742 746 747 747 748 748 753 764 768 764 766 772 775 778 781 785 787 790 797 806 811 810 810 812 815 818 822 825 828 831 834 836 838 840 842 845 847 849 851 852 854 855 856 858 859 860 861 862 862 861 861 861 860 860 860 860 859 859 858 858 857 856 856 855 854 854 853 852 850 848 846 844 842
717 722 725 731 741 746 743 746 754 749 737 734 737 740 744 742 742 749 749 745 753 763 762 764 771 774 776 779 781 780 781 785 794 804 807 809 812 815 818 820 824 828 830 834 837 839 841 843 845 847 849 851 853 854 856 857 858 860 861 862 862 862 861 861 861 861 861 861 861 861 861 860 859 859 858 857 857 856 855 854 852 851 849 846 845 843
726 728 733 735 740 743 742 743 748 743 735 736 740 741 741 741 744 751 747 740 748 757 758 763 769 771 774 777 777 779 781 783 790 800 805 808 812 816 818 820 824 827 830 834 837 839 841 844 846 848 850 851 853 855 856 858 859 860 861 862 861 861 861 862 862 862 863 863 862 862 862 861 860 860 859 859 858 857 856 854 853 851 849 847 846 844
730 734 738 739 742 746 744 742 745 742 733 735 743 743 740 740 743 745 743 743 748 753 756 763 769 771 774 776 778 783 787 789 795 802 805 808 812 815 818 821 824 827 831 834 837 839 841 844 846 848 850 852 854 855 857 858 859 860 861 861 861 861 862 863 863 863 864 863 863 863 862 862 861 861 860 860 859 858 856 855 853 852 850 849 847 845
727 729 735 740 744 748 748 746 744 738 731 733 740 743 741 737 737 740 746 749 750 751 756 764 769 772 775 779 784 787 789 792 798 803 807 810 812 815 819 822 825 828 831 834 837 839 840 843 846 849 851 853 854 855 857 858 859 860 860 861 861 862 863 864 864 864 864 864 863 863 863 862 862 862 861 860 859 858 857 855 854 853 851 849 847 845
728 729 733 738 740 740 740 739 737 735 735 735 733 734 736 736 738 741 745 750 753 755 759 764 769 773 777 781 785 788 790 795 799 803 807 811 813 816 820 823 826 828 831 834 837 838 840 843 846 849 851 853 854 856 857 857 858 859 860 861 862 862 863 864 864 865 864 864 864 864 863 863 863 862 862 861 859 858 857 856 855 853 852 850 848 846
729 732 732 734 740 741 738 737 738 740 743 741 737 736 738 739 743 743 742 746 752 756 758 763 769 774 778 781 785 788 791 795 799 803 807 810 813 816 819 823 826 828 831 835 837 838 841 843 846 849 851 853 854 855 856 857 858 859 860 861 862 863 863 864 864 864 864 864 864 864 864 864 863 863 862 861 860 859 858 856 855 854 852 850 848 846
734 736 733 732 742 746 742 742 744 744 744 744 742 743 742 742 744 744 743 747 751 753 757 763 768 773 777 780 783 788 793 796 799 804 807 810 814 818 820 824 827 829 832 835 837 839 841 844 846 849 850 852 854 855 856 857 858 859 861 862 862 863 863 864 864 864 864 864 864 864 864 864 863 863 862 861 860 859 858 857 856 854 853 851 850 848
734 735 734 736 740 739 737 743 748 746 746 747 745 744 745 745 745 746 746 749 752 755 759 763 768 774 778 779 782 788 793 796 800 804 808 811 815 819 823 826 828 830 833 835 837 839 841 843 846 848 850 852 853 855 856 857 858 859 860 861 862 863 863 863 864 864 864 864 864 864 864 864 863 863 862 861 860 859 858 857 856 855 853 852 850 849
732 731 734 739 743 742 742 748 750 747 747 748 745 745 747 746 747 749 750 751 754 758 762 766 770 774 778 780 783 787 792 797 800 803 808 812 815 819 824 826 828 830 833 835 837 839 841 843 846 848 850 852 853 855 856 857 858 859 860 860 862 862 863 863 864 864 864 864 864 864 864 864 863 863 862 861 860 859 858 858 856 855 854 853 851 850
731 730 735 742 749 751 749 750 749 746 746 748 748 747 748 747 749 752 753 755 758 761 765 769 772 774 777 781 784 786 792 798 800 802 807 812 815 819 823 825 827 830 833 835 837 839 842 844 846 848 850 852 853 855 856 857 858 859 860 861 862 862 863 863 864 864 864 864 864 864 864 863 863 862 862 861 860 860 859 858 857 856 855 854 852 851
731 733 739 742 744 744 743 744 742 737 739 747 750 749 749 750 750 753 756 758 760 763 766 770 774 776 779 782 784 787 791 797 800 803 807 811 815 818 821 824 827 830 833 835 837 840 842 844 846 848 850 852 854 855 856 857 858 859 860 861 862 862 863 863 864 864 864 864 864 864 864 863 863 862 862 861 861 860 859 858 857 856 855 854 853 852
729 732 735 733 732 732 734 739 740 737 740 748 751 750 751 752 752 755 758 759 762 765 767 770 774 778 780 784 787 789 791 796 801 804 808 812 815 818 821 824 827 830 832 835 837 839 842 844 846 848 850 852 854 855 856 858 859 860 861 861 862 862 863 863 864 864 864 864 864 864 863 863 863 863 862 862 861 861 860 859 858 857 856 855 854 853